www.pogodaiklimat.ru

Погода и климат >> Архив погоды >> Россия >> Крым >> Симферополь


АРХИВ ПОГОДЫ в Симферополе

Время (UTC), дата Ветер
(напр.,м/с)
 
Видим.   Явления Облачность Т
(С)
Тd
(С)
f
(%)
Тe
(С)
Тes
(С)
Комфортность P
(гПа)
Po
(гПа)
Тmin
(С)
Tmax
(С)
R
(мм)
S
(см)
12 18.02 С 3 10 км 3/0
[Ci sp]
+7.8 -5.0 40 +6 +9 тепло 1021.6 999.4
15 18.02 СВ 4 10 км 3/0
[Ac trans]
+4.7 -3.1 57 +1 +1 по сезону 1022.2 999.8
18 18.02 В 4 10 км ясно -0.4 -3.3 81 -6 -6 по сезону 1023.7 1000.8 +8.5
21 18.02 ЮВ 3 10 км ясно -0.2 -3.2 80 -5 -5 по сезону 1024.9 1002.0
00 19.02 Ю 2 10 км 4/0
[Ci fib]
-1.3 -4.0 82 -5 -5 по сезону 1025.9 1002.9
03 19.02 ЮВ 3 10 км 6/0
[Ci fib]
-1.9 -3.8 87 -7 -7 по сезону 1026.7 1003.6 -2.8
06 19.02 ЮВ 3 10 км 10/8 720 м
[Sc Ci fib]
+1.3 -1.4 82 -3 -3 по сезону 1027.5 1004.7 -2.8
09 19.02 Ю 3 10 км 10/10 600 м
[Sc]
+5.5 +1.4 75 +2 +2 тепло 1028.0 1005.5
12 19.02 ЮЗ 3 10 км 10/10 660 м
[Sc]
+6.7 +1.8 71 +4 +4 по сезону 1027.3 1004.9
15 19.02 СЗ 1 10 км 4/1 600 м
[Sc Cc]
+5.4 +1.5 76 +4 +4 тепло 1027.0 1004.5
18 19.02 В 2 5000 м дымка ясно +0.7 -0.4 92 -3 -3 по сезону 1027.2 1004.3 +7.2
21 19.02 ЮВ 2 4300 м дымка ясно -0.6 -1.6 93 -4 -4 по сезону 1026.2 1003.3
00 20.02 ЮВ 3 5000 м дымка ясно -0.8 -2.1 91 -6 -6 по сезону 1025.0 1002.1
03 20.02 В 4 5000 м дымка 4/0
[Ci fib]
+0.1 -1.0 92 -5 -5 по сезону 1023.2 1000.4 -1.2
06 20.02 В 5 6000 м дымка 10/0
[Ac trans Ci fib]
+4.1 +1.6 84 -1 -0 по сезону 1021.9 999.4 -1.2
09 20.02 СВ 3 10 км 10/0
[Ac trans Ci fib]
+11.8 +3.3 56 +10 +14 тепло 1019.4 997.6
12 20.02 З 4 10 км 10/0
[Ac trans Ci fib]
+14.2 -1.4 34 +13 +15 тепло 1017.0 995.4
15 20.02 З 4 10 км 10/0
[Ac und]
+9.5 +1.7 58 +7 +7 тепло 1016.5 994.6
18 20.02 ЮЗ 3 10 км 10/3 1000 м
[Cb calv Ac und]
+6.3 +3.6 83 +3 +3 тепло 1016.8 994.6 +15.6
21 20.02 Ю 3 10 км в посл. час ливневой дождь 10/5 750 м
[Cb calv Ac und]
+4.6 +3.6 93 +1 +1 тепло 1015.2 992.9
00 21.02 ЮЗ 7-10
{10}
10 км слабый дождь {ливн. осадки} 10/6 570 м
[Frnb As op]
+3.7 +2.5 92 -2 -2 по сезону 1014.6 992.3
03 21.02 Ю 5 10 км в посл. час дождь {морось} 10/10 600 м
[Sc]
+3.3 +2.3 93 -2 -2 по сезону 1012.8 990.5
06 21.02 Ю 7-10
{10}
10 км слабый дождь {морось} 10/8 570 м
[Frnb As op]
+3.1 +2.4 95 -3 -3 по сезону 1012.0 989.7 +2.8 2
09 21.02 ЮЗ 7-10
{12}
10 км слабый дождь {морось} 10/8 870 м
[Frnb As op]
+3.4 +2.4 93 -3 -3 по сезону 1012.2 989.9
12 21.02 З 7
{11}
4200 м слабая морось {дождь} 10/10 240 м
[St]
+3.5 +2.8 95 -3 -3 прохладно 1011.5 989.2
15 21.02 ЮЗ 7 10 км {морось} 10/10 600 м
[Sc]
+4.2 +3.5 95 -2 -2 по сезону 1011.1 988.9
18 21.02 ЮЗ 7-10
{11}
10 км {морось} 10/10 750 м
[Sc]
+3.6 +2.6 93 -3 -3 по сезону 1010.4 988.2 +4.4 2
21 21.02 ЮЗ 6
{10}
10 км 10/10 960 м
[Sc]
+3.9 +3.0 94 -2 -2 по сезону 1010.3 988.1
00 22.02 Ю 5 10 км 10/10 450 м
[St]
+3.8 +2.3 90 -1 -1 по сезону 1009.1 986.9
03 22.02 ЮЗ 4
{10}
5000 м слабый дождь 10/8 750 м
[Frnb As op]
+4.3 +3.7 96 -0 -0 тепло 1008.2 986.1 +2.8 0.6
06 22.02 ЮЗ 6 10 км слабый дождь 10/5 750 м
[Frnb As op]
+3.6 +3.0 96 -2 -2 по сезону 1008.6 986.4 +3.2 4
09 22.02 З 4 10 км слабый дождь 10/6 600 м
[Frnb As op]
+4.6 +4.2 97 0 +1 по сезону 1008.6 986.5
12 22.02 З 6
{10}
10 км в посл. час дождь 10/10 150 м
[St]
+3.8 +3.4 97 -2 -2 по сезону 1010.0 987.8
15 22.02 З 6
{11}
10 км 5/5 840 м
[Sc]
+4.6 +3.1 90 -1 -1 по сезону 1012.2 990.0 11
18 22.02 ЮЗ 5 10 км 10/10 1500 м
[Sc]
+4.0 +2.2 88 -1 -1 по сезону 1014.4 992.1 +5.9 8
21 22.02 Ю 5 10 км 4/4 240 м
[St]
+2.3 +1.4 94 -3 -3 по сезону 1014.8 992.4
00 23.02 Ю 6 10 км 4/4 1500 м
[Sc]
+3.0 +1.1 87 -3 -3 по сезону 1012.8 990.5
03 23.02 Ю 8-12
{12}
10 км ясно +4.4 +0.2 74 -2 -2 по сезону 1010.3 988.1 +2.1
06 23.02 Ю 8-12
{12}
10 км 10/0
[Ac trans Ci sp]
+7.2 +4.7 84 +2 +2 тепло 1008.9 987.0 +2.1
09 23.02 ЮЗ 13-17
{18}
10 км 10/0
[Ac trans Ci fib]
+12.5 +5.7 63 +9 +9 тепло 1007.1 985.6
12 23.02 ЮЗ 13-18
{19}
10 км 10/1 600 м
[St Ac und]
+9.8 +5.4 74 +5 +5 тепло 1007.3 985.6
15 23.02 ЮЗ 7 10 км 10/6 300 м
[St Ci fib]
+7.8 +5.4 85 +3 +3 тепло 1009.2 987.3
18 23.02 Ю 4
{12}
10 км 10/0
[Ac und]
+6.5 +5.3 92 +3 +3 тепло 1011.1 989.1 +12.9
21 23.02 Ю 4 10 км ясно +5.1 +4.1 93 +1 +1 тепло 1011.4 989.3
00 24.02 Ю 4 10 км ясно +4.4 +2.9 90 0 0 тепло 1011.2 989.0
03 24.02 Ю 4 10 км ясно +6.4 +3.7 83 +3 +3 тепло 1010.5 988.5 +3.8
06 24.02 Ю 5 10 км 5/0
[Ci fib]
+9.6 +5.4 75 +6 +7 тепло 1010.6 988.8 +3.8
09 24.02 ЮЗ 11 10 км 4/0
[Ac lent Ci fib]
+13.6 +7.4 66 +11 +11 тепло 1010.7 989.2
12 24.02 ЮЗ 14-18
{19}
10 км 4/3 700 м
[Sc Ci fib]
+13.6 +7.8 68 +10 +10 тепло 1010.3 988.9
15 24.02 Ю 11-17
{18}
10 км 8/8 840 м
[Sc]
+11.3 +7.0 75 +7 +7 тепло 1009.3 987.7
18 24.02 Ю 9-13
{17}
10 км ясно +9.1 +6.4 83 +4 +4 тепло 1010.7 988.9 +15.2
21 24.02 ЮЗ 8 10 км ясно +10.0 +6.7 80 +6 +6 тепло 1011.0 989.3
00 25.02 Ю 6
{13}
10 км 8/0
[Ci fib]
+9.5 +6.6 82 +6 +6 тепло 1011.1 989.3
03 25.02 Ю 6 10 км ясно +8.4 +6.2 86 +4 +4 тепло 1011.7 989.8
06 25.02 ЮЗ 7-10
{11}
10 км 10/5 420 м
[St Ac trans Ci sp]
+9.8 +7.4 85 +6 +6 тепло 1012.2 990.4 +7.9
09 25.02 ЮЗ 10-13
{14}
10 км слабый дождь 10/3 660 м
[Frnb As op]
+9.7 +7.6 87 +5 +5 тепло 1012.0 990.2

 

Местоположение метеостанции Симферополь (Крым, Россия): широта 45.03 долгота 33.97 высота над уровнем моря 181 м.

В архиве по умолчанию представлена погода в Симферополе за последнюю неделю. Архивные данные за месяц целиком и за предыдущие месяцы, начиная с января 2011 года, Вы можете получить, выбрав интересующий диапазон дат из раскрывающегося списка и нажав кнопку "Ввод!".

Внимание! Время в таблицах - всемирное. Для получения местного времени необходимо прибавить поправку, которая в Симферополе равна 3 ч.

Смотрите также архив погоды в соседних городах и на ближайших метеорологических станциях:

Погода в Белогорске (Крым, Россия) (50 км)
Погода в Евпатории (Крым, Россия) (50 км)
Погода в Алуште (Крым, Россия) (52 км)
Погода в Севастополе (город Севастополь, Россия) (57 км)
Погода в Клепинино (Крым, Россия) (58 км)
Погода в Никитском саду (Крым, Россия) (61 км)
Погода в Ай-Петри (Крым, Россия) (63 км)
Погода в Ялте (Крым, Россия) (63 км)
Погода в Херсонесском Маяке (город Севастополь, Россия) (68 км)
Погода в Стрелковом (Херсонская область, Украина) (74 км)

Пояснения к столбцам:

Ветер - указаны скорость ветра в м/с - средняя за 10 мин, порывы в срок и между сроками (в фигурных скобках) и направление, откуда дует ветер: С - северный, СВ - северо-восточный, В - восточный, ЮВ - юго-восточный, Ю - южный, ЮЗ - юго-западный, З - западный, СЗ - северо-западный.
Видимость - горизонтальная дальность видимости в метрах или километрах. При видимости от 1 до 10 км при отсутствии осадков обычно наблюдается дымка, при ухудшении видимости до 1 км и менее - туман. В сухую погоду видимость может ухудшаться дымом, пылью или мглою.
Явления - указаны атмосферные явления, наблюдавшиеся в срок или в последний час перед сроком; фигурными скобками обозначены явления, наблюдавшиеся между сроками (за 1-3 часа до срока); квадратными скобками обозначены град или гололедные отложения с указанием их диаметра в мм.
Облачность - указаны через наклонную черту общая и нижняя облачность в баллах и высота нижней границы облаков в метрах; квадратными скобками обозначены формы облаков: Ci - перистые, Cs - перисто-слоистые, Cc - перисто-кучевые, Ac - высококучевые, As - высокослоистые, Sc - слоисто-кучевые, Ns - слоисто-дождевые, Cu - кучевые, Cb - кучево-дождевые. Подробнее классификацию облаков см. в Атласе облаков (PDF).
T - Температура воздуха - температура, измеренная на высоте 2 м над землей.
Td - Температура точки росы - температура, при понижении до которой содержащийся в воздухе водяной пар достигнет насыщения.
f - Относительная влажность воздуха - влажноcть воздуха, измеренная на высоте 2 м над землей.
Te - Эффективная температура - температура, которую ощущает одетый по сезону человек в тени. Характеристика душности погоды. При расчете учитывается влияние влажности воздуха и скорости ветра на теплоощущения человека.
Tes - Эффективная температура на солнце - температура, которую ощущает человек, с поправкой на солнечный нагрев. Характеристика знойности погоды. Зависит от высоты солнца над горизонтом, облачности и скорости ветра. Ночью, в пасмурную погоду, а также при ветре 12 м/с и более поправка равна нулю.
P - Атмосферное давление - приведенное к уровню моря атмосферное давление.
Po - Атмосферное давление - измеренное на уровне метеостанции атмосферное давление.
Tmin - Минимальная температура - минимум температуры воздуха на высоте 2 м над землей.
Tmax - Максимальная температура - максимум температуры воздуха на высоте 2 м над землей.
R - Количество осадков - Количество выпавших осадков, мм. При наведении курсора мыши на число - период времени, за который выпало указанное количество осадков.
S - Снежный покров - Высота снежного покрова, см. При наведении курсора мыши на число - состояние снежного покрова и степень покрытия местности в баллах.